EZY71MA EGCC-LOWI

Flight info

Callsign EZY71MA
Flight time 1h 52m
Altitude 35000
Route SANBA1Y SANBA N859 HON L15 FINMA DCT CHT DCT ITVIP DCT KONAN DCT KOK DCT SISGA DCT RITAX DCT EDISA DCT PICWI DCT UTABA M738 BATUB/N0460F310 M738 MADEB MADEB1B
Aircraft A320/M-SDE3FGHIRWY/LB1

Departure

Time 2026-05-04 19:12
Airport Manchester Airport (EGCC)

Arrival

Time 2026-05-04 21:05
Airport Innsbruck Airport (LOWI)
Time Latitude Longitude Altitude Speed Heading
2026-05-04 18:24 53.36864 -2.28835 255 ft 0 kts 135°
2026-05-04 18:52 53.36872 -2.28845 255 ft 4 kts 141°
2026-05-04 18:52 53.36887 -2.28867 255 ft 4 kts 165°
2026-05-04 18:52 53.36910 -2.28862 255 ft 4 kts 214°
2026-05-04 18:52 53.36930 -2.28835 255 ft 2 kts 225°
2026-05-04 18:53 53.36931 -2.28832 255 ft 0 kts 225°
2026-05-04 18:59 53.36922 -2.28849 255 ft 9 kts 225°
2026-05-04 18:59 53.36865 -2.28944 255 ft 10 kts 224°
2026-05-04 18:59 53.36832 -2.28994 255 ft 9 kts 219°
2026-05-04 18:59 53.36805 -2.29019 255 ft 8 kts 201°
2026-05-04 19:00 53.36755 -2.29042 255 ft 7 kts 181°
2026-05-04 19:00 53.36728 -2.29008 255 ft 4 kts 133°
2026-05-04 19:00 53.36712 -2.28981 255 ft 3 kts 136°
2026-05-04 19:00 53.36691 -2.28948 255 ft 3 kts 136°
2026-05-04 19:01 53.36685 -2.28939 255 ft 0 kts 135°
2026-05-04 19:02 53.36684 -2.28937 255 ft 1 kts 135°
2026-05-04 19:03 53.36657 -2.28903 255 ft 6 kts 153°
2026-05-04 19:03 53.36623 -2.28876 255 ft 4 kts 148°
2026-05-04 19:03 53.36599 -2.28836 255 ft 9 kts 127°
2026-05-04 19:03 53.36574 -2.28760 255 ft 6 kts 122°
2026-05-04 19:04 53.36550 -2.28709 255 ft 5 kts 128°
2026-05-04 19:04 53.36519 -2.28650 255 ft 14 kts 133°
2026-05-04 19:04 53.36466 -2.28560 255 ft 8 kts 135°
2026-05-04 19:04 53.36429 -2.28497 255 ft 7 kts 131°
2026-05-04 19:05 53.36405 -2.28422 255 ft 10 kts 114°
2026-05-04 19:05 53.36387 -2.28357 255 ft 7 kts 119°
2026-05-04 19:05 53.36348 -2.28289 255 ft 8 kts 135°
2026-05-04 19:05 53.36314 -2.28233 255 ft 6 kts 135°
2026-05-04 19:06 53.36287 -2.28188 255 ft 5 kts 135°
2026-05-04 19:06 53.36250 -2.28127 255 ft 13 kts 135°
2026-05-04 19:06 53.36176 -2.28003 255 ft 14 kts 138°
2026-05-04 19:06 53.36112 -2.27918 255 ft 10 kts 142°
2026-05-04 19:07 53.36076 -2.27871 255 ft 0 kts 141°
2026-05-04 19:07 53.36035 -2.27814 255 ft 8 kts 140°
2026-05-04 19:07 53.35992 -2.27763 255 ft 7 kts 147°
2026-05-04 19:07 53.35954 -2.27733 255 ft 5 kts 163°
2026-05-04 19:08 53.35888 -2.27726 255 ft 15 kts 180°
2026-05-04 19:08 53.35793 -2.27697 251 ft 14 kts 142°
2026-05-04 19:08 53.35708 -2.27624 248 ft 14 kts 159°
2026-05-04 19:08 53.35630 -2.27536 246 ft 9 kts 139°
2026-05-04 19:09 53.35580 -2.27467 245 ft 5 kts 141°
2026-05-04 19:09 53.35579 -2.27466 245 ft 0 kts 141°
2026-05-04 19:09 53.35574 -2.27459 245 ft 7 kts 142°
2026-05-04 19:10 53.35446 -2.27288 247 ft 29 kts 142°
2026-05-04 19:10 53.35347 -2.27188 245 ft 14 kts 174°
2026-05-04 19:10 53.35242 -2.27220 236 ft 18 kts 192°
2026-05-04 19:10 53.35115 -2.27262 228 ft 21 kts 192°
2026-05-04 19:11 53.34991 -2.27363 225 ft 15 kts 230°
2026-05-04 19:11 53.34844 -2.27665 223 ft 68 kts 231°
2026-05-04 19:11 53.34415 -2.28549 226 ft 125 kts 232°
2026-05-04 19:11 53.33770 -2.29892 262 ft 167 kts 232°
2026-05-04 19:12 53.33032 -2.31397 846 ft 168 kts 233°
2026-05-04 19:12 53.31639 -2.34621 2174 ft 170 kts 250°
2026-05-04 19:12 53.31466 -2.36504 2804 ft 164 kts 289°
2026-05-04 19:13 53.31895 -2.38347 3187 ft 177 kts 289°
2026-05-04 19:13 53.31955 -2.40360 3881 ft 170 kts 249°
2026-05-04 19:13 53.31343 -2.42062 4187 ft 192 kts 230°
2026-05-04 19:13 53.30230 -2.43694 4092 ft 233 kts 217°
2026-05-04 19:14 53.28716 -2.45101 4308 ft 264 kts 201°
2026-05-04 19:14 53.26888 -2.45597 5025 ft 271 kts 175°
2026-05-04 19:14 53.25144 -2.44405 5823 ft 277 kts 144°
2026-05-04 19:14 53.23567 -2.42532 6694 ft 279 kts 145°
2026-05-04 19:15 53.21955 -2.40680 7451 ft 285 kts 148°
2026-05-04 19:15 53.20250 -2.38960 8246 ft 288 kts 151°
2026-05-04 19:15 53.18507 -2.37351 9054 ft 291 kts 153°
2026-05-04 19:15 53.16708 -2.35767 9868 ft 294 kts 154°
2026-05-04 19:16 53.14867 -2.34176 10405 ft 307 kts 154°
2026-05-04 19:16 53.12897 -2.32486 10623 ft 330 kts 154°
2026-05-04 19:16 53.10786 -2.30669 10783 ft 353 kts 154°
2026-05-04 19:16 53.08552 -2.28735 11110 ft 368 kts 153°
2026-05-04 19:17 53.06268 -2.26750 11752 ft 372 kts 153°
2026-05-04 19:17 53.03964 -2.24748 12445 ft 375 kts 153°
2026-05-04 19:17 53.01653 -2.22735 13112 ft 379 kts 154°
2026-05-04 19:17 52.99569 -2.20918 13696 ft 382 kts 154°
2026-05-04 19:18 52.97266 -2.18913 14309 ft 384 kts 153°
2026-05-04 19:18 52.94837 -2.16804 14928 ft 386 kts 153°
2026-05-04 19:18 52.92447 -2.14736 15512 ft 389 kts 153°
2026-05-04 19:18 52.90040 -2.12656 16085 ft 392 kts 153°
2026-05-04 19:19 52.87619 -2.10565 16653 ft 394 kts 153°
2026-05-04 19:19 52.85175 -2.08458 17193 ft 397 kts 153°
2026-05-04 19:19 52.82713 -2.06340 17749 ft 400 kts 154°
2026-05-04 19:19 52.80241 -2.04215 18275 ft 402 kts 154°
2026-05-04 19:20 52.77745 -2.02072 18741 ft 405 kts 154°
2026-05-04 19:20 52.75240 -1.99925 19187 ft 408 kts 154°
2026-05-04 19:20 52.72745 -1.97796 19627 ft 410 kts 155°
2026-05-04 19:20 52.70207 -1.95629 20099 ft 412 kts 155°
2026-05-04 19:21 52.67661 -1.93456 20551 ft 414 kts 155°
2026-05-04 19:21 52.65098 -1.91265 20980 ft 417 kts 155°
2026-05-04 19:21 52.62521 -1.89061 21411 ft 419 kts 155°
2026-05-04 19:21 52.59924 -1.86843 21844 ft 421 kts 155°
2026-05-04 19:22 52.57314 -1.84622 22272 ft 423 kts 156°
2026-05-04 19:22 52.54690 -1.82405 22686 ft 426 kts 156°
2026-05-04 19:22 52.52079 -1.80210 23083 ft 428 kts 156°
2026-05-04 19:22 52.49431 -1.77983 23505 ft 429 kts 156°
2026-05-04 19:23 52.46772 -1.75739 23883 ft 430 kts 156°
2026-05-04 19:23 52.44103 -1.73486 24223 ft 432 kts 156°
2026-05-04 19:23 52.41421 -1.71228 24551 ft 434 kts 156°
2026-05-04 19:23 52.38733 -1.68966 24876 ft 436 kts 155°
2026-05-04 19:24 52.36981 -1.67330 25081 ft 439 kts 150°
2026-05-04 19:24 52.34535 -1.64298 25389 ft 445 kts 141°
2026-05-04 19:24 52.32345 -1.60683 25690 ft 448 kts 136°
2026-05-04 19:24 52.30199 -1.56987 25993 ft 450 kts 136°
2026-05-04 19:25 52.28032 -1.53286 26286 ft 451 kts 136°
2026-05-04 19:25 52.25149 -1.48387 26715 ft 452 kts 136°
2026-05-04 19:25 52.23675 -1.45888 26903 ft 453 kts 136°
2026-05-04 19:25 52.21574 -1.42324 27148 ft 455 kts 136°
2026-05-04 19:26 52.19312 -1.38489 27433 ft 457 kts 136°
2026-05-04 19:26 52.17102 -1.34749 27704 ft 459 kts 136°
2026-05-04 19:26 52.14890 -1.31006 28061 ft 458 kts 136°
2026-05-04 19:26 52.12138 -1.26345 28564 ft 456 kts 136°
2026-05-04 19:27 52.09944 -1.22634 28950 ft 455 kts 136°
2026-05-04 19:27 52.07746 -1.18929 29342 ft 454 kts 136°
2026-05-04 19:27 52.06262 -1.16436 29611 ft 454 kts 136°
2026-05-04 19:27 52.04101 -1.12807 29994 ft 452 kts 136°
2026-05-04 19:28 52.01919 -1.09152 30392 ft 450 kts 136°
2026-05-04 19:28 51.99738 -1.05519 30764 ft 448 kts 137°
2026-05-04 19:28 51.97511 -1.02001 31099 ft 446 kts 139°
2026-05-04 19:28 51.95222 -0.98620 31429 ft 444 kts 140°
2026-05-04 19:29 51.92896 -0.95328 31735 ft 443 kts 141°
2026-05-04 19:29 51.91561 -0.93469 31908 ft 443 kts 141°
2026-05-04 19:29 51.90104 -0.91447 32105 ft 443 kts 141°
2026-05-04 19:29 51.87768 -0.88188 32422 ft 442 kts 141°
2026-05-04 19:30 51.85480 -0.84957 32730 ft 441 kts 141°
2026-05-04 19:30 51.83905 -0.82712 32953 ft 441 kts 141°
2026-05-04 19:30 51.82364 -0.80504 33180 ft 440 kts 140°
2026-05-04 19:30 51.80079 -0.77217 33499 ft 439 kts 140°
2026-05-04 19:31 51.77808 -0.73952 33929 ft 436 kts 140°
2026-05-04 19:31 51.75548 -0.70709 34243 ft 434 kts 140°
2026-05-04 19:31 51.73291 -0.67475 34492 ft 434 kts 140°
2026-05-04 19:31 51.71030 -0.64242 34711 ft 435 kts 140°
2026-05-04 19:32 51.68763 -0.61013 34910 ft 435 kts 140°
2026-05-04 19:32 51.66483 -0.57777 35024 ft 438 kts 140°
2026-05-04 19:32 51.64302 -0.54286 35031 ft 442 kts 132°
2026-05-04 19:33 51.61113 -0.45825 35026 ft 449 kts 114°
2026-05-04 19:33 51.59142 -0.36431 35033 ft 450 kts 110°
2026-05-04 19:34 51.57184 -0.27000 35033 ft 450 kts 111°
2026-05-04 19:34 51.55182 -0.17408 35033 ft 449 kts 111°
2026-05-04 19:35 51.53206 -0.07989 35046 ft 449 kts 111°
2026-05-04 19:35 51.51753 -0.01085 35045 ft 449 kts 111°
2026-05-04 19:36 51.49745 0.08424 35009 ft 450 kts 111°
2026-05-04 19:36 51.47724 0.17948 35016 ft 451 kts 111°
2026-05-04 19:37 51.45687 0.27477 35015 ft 452 kts 111°
2026-05-04 19:37 51.43642 0.37006 35015 ft 452 kts 111°
2026-05-04 19:38 51.41604 0.46467 35021 ft 453 kts 111°
2026-05-04 19:38 51.39535 0.56002 35015 ft 453 kts 111°
2026-05-04 19:39 51.37466 0.65536 35012 ft 454 kts 111°
2026-05-04 19:39 51.35385 0.75087 35018 ft 455 kts 111°
2026-05-04 19:40 51.33287 0.84636 35023 ft 455 kts 111°
2026-05-04 19:40 51.31199 0.94119 35025 ft 455 kts 112°
2026-05-04 19:41 51.29082 1.03658 35018 ft 456 kts 111°
2026-05-04 19:41 51.27410 1.13451 35026 ft 457 kts 106°
2026-05-04 19:42 51.25845 1.23144 35027 ft 458 kts 107°
2026-05-04 19:42 51.24262 1.32851 35031 ft 458 kts 107°
2026-05-04 19:43 51.22663 1.42633 35026 ft 458 kts 107°
2026-05-04 19:43 51.21058 1.52407 35024 ft 457 kts 107°
2026-05-04 19:44 51.19440 1.62142 35025 ft 457 kts 107°
2026-05-04 19:44 51.17819 1.71862 35026 ft 457 kts 107°
2026-05-04 19:45 51.16217 1.81433 35027 ft 456 kts 107°
2026-05-04 19:45 51.14629 1.90821 35020 ft 456 kts 108°
2026-05-04 19:46 51.13093 2.00620 35029 ft 458 kts 101°
2026-05-04 19:46 51.12503 2.10726 35028 ft 459 kts 97°
2026-05-04 19:47 51.11973 2.20776 35027 ft 459 kts 97°
2026-05-04 19:47 51.11427 2.30895 35012 ft 459 kts 97°
2026-05-04 19:48 51.10866 2.40997 35001 ft 459 kts 97°
2026-05-04 19:48 51.10289 2.51118 34997 ft 459 kts 97°
2026-05-04 19:49 51.09632 2.61230 35002 ft 458 kts 103°
2026-05-04 19:49 51.07650 2.70673 34996 ft 452 kts 120°
2026-05-04 19:50 51.04711 2.79503 34998 ft 452 kts 120°
2026-05-04 19:50 51.01782 2.88353 34978 ft 453 kts 120°
2026-05-04 19:51 50.98843 2.97198 34982 ft 453 kts 120°
2026-05-04 19:51 50.95884 3.06036 34983 ft 454 kts 120°
2026-05-04 19:52 50.92932 3.14822 34989 ft 454 kts 121°
2026-05-04 19:52 50.89952 3.23657 34982 ft 455 kts 121°
2026-05-04 19:53 50.86968 3.32481 34971 ft 454 kts 121°
2026-05-04 19:53 50.83980 3.41287 34988 ft 454 kts 121°
2026-05-04 19:54 50.81001 3.50024 34991 ft 454 kts 121°
2026-05-04 19:54 50.78005 3.58781 34989 ft 453 kts 122°
2026-05-04 19:55 50.75004 3.67534 34993 ft 453 kts 122°
2026-05-04 19:55 50.71996 3.76270 34972 ft 453 kts 122°
2026-05-04 19:56 50.68994 3.84993 34979 ft 452 kts 122°
2026-05-04 19:56 50.65983 3.93703 34979 ft 452 kts 122°
2026-05-04 19:57 50.62985 4.02319 34977 ft 452 kts 122°
2026-05-04 19:57 50.60045 4.11065 34979 ft 453 kts 120°
2026-05-04 19:58 50.57389 4.20062 34973 ft 454 kts 118°
2026-05-04 19:58 50.54793 4.29096 34965 ft 454 kts 118°
2026-05-04 19:59 50.52139 4.38027 34965 ft 454 kts 119°
2026-05-04 19:59 50.49424 4.46966 34966 ft 454 kts 119°
2026-05-04 20:00 50.46695 4.55910 34962 ft 454 kts 119°
2026-05-04 20:00 50.43967 4.64856 34950 ft 454 kts 120°
2026-05-04 20:01 50.41257 4.73727 34973 ft 454 kts 120°
2026-05-04 20:01 50.38528 4.82645 34982 ft 454 kts 120°
2026-05-04 20:02 50.35786 4.91546 34986 ft 454 kts 120°
2026-05-04 20:02 50.33032 5.00450 34988 ft 454 kts 120°
2026-05-04 20:03 50.30276 5.09326 34960 ft 453 kts 121°
2026-05-04 20:03 50.27539 5.18127 34978 ft 453 kts 121°
2026-05-04 20:04 50.24770 5.26980 34988 ft 453 kts 121°
2026-05-04 20:04 50.22003 5.35805 34989 ft 453 kts 121°
2026-05-04 20:05 50.19232 5.44625 34993 ft 453 kts 121°
2026-05-04 20:05 50.16456 5.53435 34977 ft 452 kts 121°
2026-05-04 20:06 50.13690 5.62165 34982 ft 452 kts 121°
2026-05-04 20:06 50.10898 5.70933 34992 ft 451 kts 122°
2026-05-04 20:07 50.08094 5.79680 34993 ft 450 kts 123°
2026-05-04 20:07 50.04801 5.87886 34991 ft 446 kts 128°
2026-05-04 20:08 50.01445 5.95927 34971 ft 447 kts 128°
2026-05-04 20:08 49.98057 6.04036 34974 ft 447 kts 128°
2026-05-04 20:09 49.94668 6.12137 34975 ft 447 kts 128°
2026-05-04 20:09 49.91277 6.20228 34969 ft 447 kts 128°
2026-05-04 20:10 49.87881 6.28294 34968 ft 447 kts 128°
2026-05-04 20:10 49.84492 6.36293 34942 ft 447 kts 129°
2026-05-04 20:11 49.81071 6.44335 34954 ft 447 kts 128°
2026-05-04 20:11 49.77643 6.52374 34950 ft 447 kts 128°
2026-05-04 20:12 49.74217 6.60407 34956 ft 447 kts 128°
2026-05-04 20:12 49.70789 6.68436 34964 ft 447 kts 128°
2026-05-04 20:13 49.67376 6.76390 34971 ft 447 kts 129°
2026-05-04 20:13 49.63929 6.84386 34957 ft 448 kts 129°
2026-05-04 20:14 49.60475 6.92383 34976 ft 448 kts 129°
2026-05-04 20:14 49.57024 7.00358 34974 ft 447 kts 129°
2026-05-04 20:15 49.53583 7.08279 34982 ft 448 kts 129°
2026-05-04 20:15 49.50113 7.16235 34998 ft 448 kts 129°
2026-05-04 20:16 49.46640 7.24172 34984 ft 447 kts 129°
2026-05-04 20:16 49.43162 7.32113 34990 ft 447 kts 129°
2026-05-04 20:17 49.39708 7.39975 34985 ft 447 kts 129°
2026-05-04 20:17 49.36217 7.47884 34992 ft 447 kts 129°
2026-05-04 20:18 49.32721 7.55777 34983 ft 447 kts 129°
2026-05-04 20:18 49.29222 7.63673 34964 ft 448 kts 129°
2026-05-04 20:19 49.25732 7.71517 34965 ft 449 kts 129°
2026-05-04 20:19 49.22212 7.79415 34976 ft 449 kts 129°
2026-05-04 20:20 49.18683 7.87292 34989 ft 449 kts 129°
2026-05-04 20:20 49.15149 7.95148 34991 ft 449 kts 129°
2026-05-04 20:21 49.11608 8.03002 34964 ft 449 kts 129°
2026-05-04 20:21 49.06329 8.14711 34968 ft 449 kts 129°
2026-05-04 20:22 49.02776 8.22539 34977 ft 448 kts 129°
2026-05-04 20:22 48.99151 8.30245 34966 ft 445 kts 135°
2026-05-04 20:23 48.94721 8.36706 34970 ft 442 kts 139°
2026-05-04 20:23 48.90513 8.43487 34972 ft 444 kts 137°
2026-05-04 20:24 48.86278 8.50330 34979 ft 445 kts 137°
2026-05-04 20:24 48.82024 8.57149 34986 ft 445 kts 138°
2026-05-04 20:25 48.77767 8.63958 34992 ft 445 kts 138°
2026-05-04 20:25 48.73530 8.70710 34980 ft 445 kts 137°
2026-05-04 20:26 48.69266 8.77503 34958 ft 445 kts 137°
2026-05-04 20:26 48.64996 8.84287 34962 ft 446 kts 138°
2026-05-04 20:27 48.60712 8.91074 34962 ft 446 kts 138°
2026-05-04 20:27 48.56424 8.97846 34978 ft 446 kts 138°
2026-05-04 20:28 48.52159 9.04550 34980 ft 446 kts 138°
2026-05-04 20:28 48.47862 9.11305 34963 ft 446 kts 138°
2026-05-04 20:29 48.43565 9.18057 34962 ft 446 kts 138°
2026-05-04 20:29 48.39257 9.24792 34968 ft 447 kts 138°
2026-05-04 20:30 48.34968 9.31469 34985 ft 447 kts 138°
2026-05-04 20:30 48.30645 9.38188 34982 ft 447 kts 138°
2026-05-04 20:31 48.26090 9.44421 34968 ft 440 kts 150°
2026-05-04 20:31 48.20676 9.48290 34946 ft 431 kts 167°
2026-05-04 20:32 48.14906 9.50768 34955 ft 432 kts 167°
2026-05-04 20:32 48.09128 9.53268 34951 ft 433 kts 167°
2026-05-04 20:33 48.03361 9.55902 34948 ft 436 kts 161°
2026-05-04 20:33 47.98098 9.60510 34948 ft 443 kts 147°
2026-05-04 20:34 47.93110 9.65932 34953 ft 444 kts 148°
2026-05-04 20:34 47.88108 9.71341 34957 ft 444 kts 148°
2026-05-04 20:35 47.83127 9.76690 34943 ft 444 kts 148°
2026-05-04 20:35 47.80667 9.79325 34759 ft 431 kts 148°
2026-05-04 20:35 47.78253 9.81915 34366 ft 425 kts 148°
2026-05-04 20:36 47.75872 9.84469 33946 ft 419 kts 148°
2026-05-04 20:36 47.73531 9.86977 33147 ft 412 kts 148°
2026-05-04 20:36 47.71226 9.89441 32353 ft 405 kts 148°
2026-05-04 20:36 47.68957 9.91863 31579 ft 398 kts 148°
2026-05-04 20:37 47.66754 9.94213 30845 ft 392 kts 148°
2026-05-04 20:37 47.64560 9.96555 30129 ft 385 kts 148°
2026-05-04 20:37 47.62400 9.98855 29293 ft 379 kts 148°
2026-05-04 20:37 47.60273 10.01116 28440 ft 375 kts 148°
2026-05-04 20:38 47.58160 10.03356 27595 ft 371 kts 148°
2026-05-04 20:38 47.56080 10.05562 26782 ft 366 kts 148°
2026-05-04 20:38 47.54013 10.07754 25866 ft 365 kts 147°
2026-05-04 20:38 47.51943 10.09945 24926 ft 367 kts 147°
2026-05-04 20:39 47.49863 10.12144 24001 ft 368 kts 147°
2026-05-04 20:39 47.47802 10.14314 23036 ft 369 kts 147°
2026-05-04 20:39 47.45709 10.16518 21990 ft 370 kts 147°
2026-05-04 20:39 47.43606 10.18719 20980 ft 370 kts 148°
2026-05-04 20:40 47.41462 10.20812 20004 ft 370 kts 150°
2026-05-04 20:40 47.39278 10.22817 19058 ft 369 kts 152°
2026-05-04 20:40 47.37076 10.24777 18157 ft 368 kts 152°
2026-05-04 20:40 47.34950 10.26788 17508 ft 359 kts 144°
2026-05-04 20:41 47.33227 10.29389 16959 ft 353 kts 129°
2026-05-04 20:41 47.32067 10.32529 16473 ft 346 kts 112°
2026-05-04 20:41 47.31481 10.35886 15990 ft 340 kts 103°
2026-05-04 20:41 47.31029 10.39264 15529 ft 334 kts 103°
2026-05-04 20:42 47.30581 10.42573 15077 ft 325 kts 104°
2026-05-04 20:42 47.30138 10.45797 14642 ft 318 kts 104°
2026-05-04 20:42 47.29699 10.48956 14223 ft 311 kts 104°
2026-05-04 20:42 47.29267 10.52041 13786 ft 305 kts 104°
2026-05-04 20:43 47.28846 10.55075 13300 ft 300 kts 104°
2026-05-04 20:43 47.28436 10.58051 13036 ft 289 kts 104°
2026-05-04 20:43 47.28054 10.60865 13030 ft 274 kts 104°
2026-05-04 20:43 47.27686 10.63566 13037 ft 271 kts 104°
2026-05-04 20:44 47.27315 10.66282 13050 ft 270 kts 104°
2026-05-04 20:44 47.26944 10.68986 13047 ft 269 kts 104°
2026-05-04 20:44 47.26571 10.71697 13048 ft 270 kts 104°
2026-05-04 20:44 47.26195 10.74410 13054 ft 271 kts 104°
2026-05-04 20:45 47.25818 10.77124 13032 ft 271 kts 104°
2026-05-04 20:45 47.25428 10.79909 12364 ft 286 kts 104°
2026-05-04 20:45 47.25018 10.82849 11588 ft 303 kts 104°
2026-05-04 20:45 47.24587 10.85963 10774 ft 318 kts 104°
2026-05-04 20:46 47.24140 10.89181 9951 ft 331 kts 104°
2026-05-04 20:46 47.23836 10.92501 9983 ft 310 kts 89°
2026-05-04 20:46 47.24281 10.95358 10788 ft 273 kts 66°
2026-05-04 20:46 47.25339 10.97788 10216 ft 304 kts 49°
2026-05-04 20:47 47.27053 10.99967 8754 ft 344 kts 40°
2026-05-04 20:47 47.28885 11.02143 8591 ft 329 kts 42°
2026-05-04 20:47 47.30250 11.04758 8302 ft 318 kts 67°
2026-05-04 20:47 47.30819 11.07799 8232 ft 301 kts 82°
2026-05-04 20:48 47.31192 11.10766 8162 ft 287 kts 81°
2026-05-04 20:48 47.31584 11.13549 8095 ft 275 kts 80°
2026-05-04 20:48 47.31979 11.16235 8036 ft 262 kts 80°
2026-05-04 20:48 47.32361 11.18794 7949 ft 249 kts 79°
2026-05-04 20:49 47.32728 11.21251 7889 ft 243 kts 80°
2026-05-04 20:49 47.33087 11.23685 7839 ft 243 kts 79°
2026-05-04 20:49 47.33445 11.26135 8317 ft 245 kts 79°
2026-05-04 20:49 47.33805 11.28630 9074 ft 253 kts 80°
2026-05-04 20:50 47.34177 11.31202 9420 ft 258 kts 79°
2026-05-04 20:50 47.34554 11.33790 9500 ft 258 kts 81°
2026-05-04 20:50 47.34931 11.36380 9512 ft 258 kts 80°
2026-05-04 20:50 47.35302 11.38921 9505 ft 256 kts 80°
2026-05-04 20:51 47.35675 11.41496 9499 ft 260 kts 80°
2026-05-04 20:51 47.36050 11.44128 9504 ft 262 kts 81°
2026-05-04 20:51 47.36427 11.46779 9508 ft 266 kts 79°
2026-05-04 20:51 47.36806 11.49442 9488 ft 265 kts 81°
2026-05-04 20:52 47.37188 11.52118 9503 ft 267 kts 80°
2026-05-04 20:52 47.37570 11.54786 9492 ft 266 kts 80°
2026-05-04 20:52 47.37951 11.57446 9483 ft 263 kts 81°
2026-05-04 20:52 47.38337 11.60184 9485 ft 289 kts 81°
2026-05-04 20:53 47.38755 11.63158 9484 ft 300 kts 81°
2026-05-04 20:53 47.39184 11.66182 9476 ft 301 kts 80°
2026-05-04 20:53 47.39613 11.69200 9476 ft 301 kts 80°
2026-05-04 20:53 47.40042 11.72225 9467 ft 300 kts 81°
2026-05-04 20:54 47.40464 11.75215 9468 ft 289 kts 82°
2026-05-04 20:54 47.40499 11.78049 9465 ft 267 kts 108°
2026-05-04 20:54 47.39722 11.80412 9429 ft 251 kts 131°
2026-05-04 20:54 47.38435 11.82052 9077 ft 243 kts 157°
2026-05-04 20:55 47.36846 11.82634 8971 ft 239 kts 178°
2026-05-04 20:55 47.35207 11.82411 8988 ft 237 kts 196°
2026-05-04 20:55 47.33749 11.81438 8980 ft 225 kts 214°
2026-05-04 20:55 47.32636 11.79923 8972 ft 213 kts 231°
2026-05-04 20:56 47.31913 11.78071 8861 ft 209 kts 246°
2026-05-04 20:56 47.31560 11.75949 8576 ft 219 kts 257°
2026-05-04 20:56 47.31299 11.73755 8222 ft 214 kts 256°
2026-05-04 20:56 47.31025 11.71649 7868 ft 206 kts 256°
2026-05-04 20:57 47.30755 11.69639 7535 ft 198 kts 256°
2026-05-04 20:57 47.30488 11.67673 7222 ft 188 kts 255°
2026-05-04 20:57 47.30238 11.65844 6944 ft 180 kts 255°
2026-05-04 20:57 47.29996 11.64073 6656 ft 173 kts 254°
2026-05-04 20:58 47.29759 11.62341 6374 ft 173 kts 257°
2026-05-04 20:58 47.29521 11.60608 6092 ft 173 kts 256°
2026-05-04 20:58 47.29283 11.58868 5814 ft 173 kts 255°
2026-05-04 20:58 47.29046 11.57137 5526 ft 172 kts 255°
2026-05-04 20:59 47.28809 11.55414 5247 ft 172 kts 255°
2026-05-04 20:59 47.28570 11.53676 4962 ft 174 kts 257°
2026-05-04 20:59 47.28331 11.51938 4679 ft 176 kts 257°
2026-05-04 20:59 47.28087 11.50165 4387 ft 177 kts 257°
2026-05-04 21:00 47.27843 11.48392 4086 ft 178 kts 256°
2026-05-04 21:00 47.27601 11.46636 3807 ft 171 kts 257°
2026-05-04 21:00 47.27368 11.44951 3520 ft 164 kts 257°
2026-05-04 21:00 47.27145 11.43340 3261 ft 156 kts 256°
2026-05-04 21:01 47.26798 11.41885 3132 ft 149 kts 245°
2026-05-04 21:01 47.26352 11.40527 3155 ft 146 kts 243°
2026-05-04 21:01 47.25909 11.39205 3245 ft 145 kts 242°
2026-05-04 21:01 47.25463 11.37863 3374 ft 150 kts 242°
2026-05-04 21:02 47.25073 11.36452 3240 ft 150 kts 257°
2026-05-04 21:02 47.24908 11.34961 3256 ft 147 kts 257°
2026-05-04 21:02 47.24653 11.33495 3314 ft 148 kts 251°
2026-05-04 21:02 47.24327 11.32070 3302 ft 147 kts 249°
2026-05-04 21:03 47.23953 11.30683 3333 ft 146 kts 252°
2026-05-04 21:03 47.23874 11.29166 3324 ft 156 kts 287°
2026-05-04 21:03 47.24655 11.28224 3123 ft 164 kts 356°
2026-05-04 21:03 47.25484 11.29117 2826 ft 154 kts 78°
2026-05-04 21:04 47.25598 11.30679 2411 ft 155 kts 83°
2026-05-04 21:04 47.25778 11.32203 2111 ft 147 kts 82°
2026-05-04 21:04 47.25939 11.33657 1906 ft 135 kts 86°
2026-05-04 21:04 47.26066 11.34830 1901 ft 85 kts 79°
2026-05-04 21:05 47.26075 11.35253 1899 ft 25 kts 148°
2026-05-04 21:05 47.25949 11.35284 1897 ft 17 kts 171°
2026-05-04 21:05 47.25897 11.35250 1902 ft 2 kts 173°
2026-05-04 21:05 47.25858 11.35276 1899 ft 9 kts 126°
2026-05-04 21:06 47.25849 11.35285 1902 ft 0 kts 163°